Lid_Strength_Index
-0 -0 0 -0 -0 -0 -0 -0 -0 -0 -0 0 -0 -0 -0 0 -0 0 0 2 1 -1 -2 -2 -2 -2 -2 -2 -2 -2 -2 -2 -2 -2 -2 -2 -2 -2 -2 -2 -2 -2 -2
-0 -0 -0 -0 -0 -0 -0 0 0 1 1 1 1 1 1 1 1 1 0 -0 1 0 -1 -2 -2 -2 -3 -2 -2 -2 -2 -2 -2 -2 -2 -2 -2 -2 -2 -2 -2 -2 -2
1 0 0 0 -0 -0 0 1 0 1 0 1 0 1 1 0 0 0 -0 -0 -0 1 1 -1 -1 -2 -2 -2 -2 -2 -2 -2 -2 -2 -2 -2 -2 -2 -2 -2 -2 -2 -2
1 1 1 1 0 1 1 1 1 1 1 1 1 0 0 0 -0 0 0 0 0 1 1 0 0 1 0 -1 -1 -1 -1 -1 -1 -0 -0 -1 -1 -2 -2 -2 -2 -2 -2
0 0 1 1 1 1 1 2 1 1 0 1 0 -0 -0 -0 0 1 1 1 1 1 1 2 3 3 2 0 -0 -0 -0 -0 -0 -0 -0 -0 -0 -0 -1 -1 -1 -1 -2
0 0 0 0 1 1 2 2 2 2 1 0 1 1 0 0 1 1 2 2 2 2 2 4 4 3 2 2 1 1 0 0 0 1 1 1 1 0 -0 -0 -1 -1 -1
-0 0 0 0 1 1 1 1 1 1 1 0 1 1 1 2 1 2 1 2 3 4 5 5 4 3 3 3 2 1 2 2 2 2 3 2 2 2 1 1 1 0 -0
-0 -0 -0 0 1 1 1 1 1 1 2 1 2 3 4 3 2 3 3 3 5 6 7 5 5 5 5 5 5 5 4 3 3 3 3 3 2 2 2 2 2 2 1
0 1 1 1 1 1 1 1 1 1 2 2 2 3 5 6 6 4 4 6 7 8 7 6 7 6 6 7 8 7 6 5 4 4 3 3 3 3 3 3 3 2 2
3 2 2 2 2 2 2 3 2 3 2 5 4 5 4 5 8 9 6 7 9 8 8 8 7 8 9 9 8 8 7 7 6 6 5 5 4 4 3 3 3 3 3
6 6 5 4 5 5 5 5 6 5 5 6 6 7 6 7 8 10 12 11 10 9 9 8 8 9 10 10 9 9 8 8 8 7 7 6 5 5 4 4 4 3 3
8 8 8 8 7 7 7 8 8 8 8 8 9 9 9 10 10 11 12 13 13 11 9 8 10 10 10 10 10 10 9 9 8 8 7 7 7 6 6 5 4 4 3
10 9 9 9 9 9 9 9 10 10 10 11 11 11 10 11 11 11 12 13 13 11 10 9 10 10 11 10 10 10 10 9 9 8 8 8 7 7 6 6 5 4 3
10 11 11 11 11 11 10 10 11 11 11 11 12 11 12 12 12 12 13 13 14 13 12 13 11 10 11 10 10 10 10 10 9 8 8 8 7 7 7 6 5 4 4
11 11 11 12 12 12 11 11 12 12 12 12 12 12 13 13 13 13 13 14 14 16 15 13 13 11 11 10 10 11 11 10 9 9 8 8 7 7 6 5 4 3 2
13 12 13 13 13 12 12 12 12 13 13 13 13 14 14 14 14 13 13 13 13 15 16 13 13 12 11 11 11 10 10 10 10 9 8 8 7 6 5 4 3 2 2
13 13 13 14 13 13 13 13 13 14 14 14 14 14 15 14 14 13 13 13 14 14 15 13 12 11 11 11 11 10 10 11 10 10 9 8 7 6 5 3 2 1 1
13 14 14 14 14 14 13 13 14 14 15 15 15 15 15 14 14 14 14 14 14 13 14 15 13 12 12 11 11 11 11 11 11 10 8 7 6 5 4 2 2 1 1
14 14 14 14 14 14 14 14 14 15 15 15 15 15 14 14 15 14 14 14 13 13 13 14 14 12 12 11 11 11 11 11 10 10 8 7 6 5 4 3 2 2 2
15 15 15 14 14 14 14 15 15 15 15 15 14 14 14 14 15 14 14 13 13 13 13 13 13 13 12 11 11 13 13 11 11 10 9 8 6 6 4 3 3 3 2
15 15 15 14 15 15 15 15 15 15 15 15 14 14 14 14 14 13 13 13 13 13 12 13 13 13 13 13 14 13 13 12 10 10 9 8 7 6 5 5 4 4 3
15 15 15 16 16 15 13 14 15 15 15 15 15 14 14 15 14 13 12 11 11 12 13 12 13 14 13 13 13 13 13 14 14 9 10 9 7 6 6 6 4 4 4
16 16 16 16 16 15 13 13 14 15 15 15 15 15 14 14 14 14 13 12 12 11 11 11 13 13 13 12 12 12 12 13 12 10 11 10 7 7 6 6 4 4 4
17 17 17 17 17 16 13 13 14 15 15 15 14 14 14 14 14 14 13 12 12 12 12 11 11 12 11 10 10 11 12 13 12 11 10 12 8 8 7 6 5 5 5
17 17 18 18 17 16 13 13 14 15 15 15 15 14 14 14 13 12 12 12 12 12 11 11 11 11 10 10 10 11 12 13 13 11 10 11 9 10 9 8 7 6 7
18 18 18 18 18 17 14 13 14 15 16 16 15 14 14 13 13 12 12 12 13 12 12 14 15 13 12 12 11 12 12 13 14 12 10 12 11 11 11 8 8 8 9